Year,Month,Day,Hour,Minute,Value (Times are PST for temperature in C)
2009,06,23,00,00,11.40
2009,06,23,00,01,11.40
2009,06,23,00,02,11.40
2009,06,23,00,03,11.40
2009,06,23,00,04,11.30
2009,06,23,00,05,11.30
2009,06,23,00,06,11.30
2009,06,23,00,07,11.30
2009,06,23,00,08,11.30
2009,06,23,00,09,11.30
2009,06,23,00,10,11.20
2009,06,23,00,11,11.20
2009,06,23,00,12,11.10
2009,06,23,00,13,11.10
2009,06,23,00,14,11.10
2009,06,23,00,15,11.10
2009,06,23,00,16,11.10
2009,06,23,00,17,11.10
2009,06,23,00,18,11.00
2009,06,23,00,19,10.90
2009,06,23,00,20,10.90
2009,06,23,00,21,10.90
2009,06,23,00,22,10.90
2009,06,23,00,23,10.90
2009,06,23,00,24,10.90
2009,06,23,00,25,10.90
2009,06,23,00,26,10.90
2009,06,23,00,27,10.90
2009,06,23,00,28,10.90
2009,06,23,00,29,10.90
2009,06,23,00,30,10.90
2009,06,23,00,31,10.90
2009,06,23,00,32,10.90
2009,06,23,00,33,10.90
2009,06,23,00,34,10.90
2009,06,23,00,35,10.80
2009,06,23,00,36,10.80
2009,06,23,00,37,10.80
2009,06,23,00,38,10.80
2009,06,23,00,39,10.80
2009,06,23,00,40,10.70
2009,06,23,00,41,10.70
2009,06,23,00,42,10.70
2009,06,23,00,43,10.70
2009,06,23,00,44,10.70
2009,06,23,00,45,10.70
2009,06,23,00,46,10.60
2009,06,23,00,47,10.60
2009,06,23,00,48,10.60
2009,06,23,00,49,10.60
2009,06,23,00,50,10.60
2009,06,23,00,51,10.60
2009,06,23,00,52,10.60
2009,06,23,00,53,10.60
2009,06,23,00,54,10.60
2009,06,23,00,55,10.60
2009,06,23,00,56,10.60
2009,06,23,00,57,10.60
2009,06,23,00,58,10.60
2009,06,23,00,59,10.60
2009,06,23,01,00,10.60
2009,06,23,01,01,10.60
2009,06,23,01,02,10.50
2009,06,23,01,03,10.40
2009,06,23,01,04,10.40
2009,06,23,01,05,10.40
2009,06,23,01,06,10.40
2009,06,23,01,07,10.40
2009,06,23,01,08,10.40
2009,06,23,01,09,10.40
2009,06,23,01,10,10.40
2009,06,23,01,11,10.40
2009,06,23,01,12,10.40
2009,06,23,01,13,10.40
2009,06,23,01,14,10.40
2009,06,23,01,15,10.40
2009,06,23,01,16,10.40
2009,06,23,01,17,10.30
2009,06,23,01,18,10.30
2009,06,23,01,19,10.30
2009,06,23,01,20,10.30
2009,06,23,01,21,10.30
2009,06,23,01,22,10.30
2009,06,23,01,23,10.30
2009,06,23,01,24,10.20
2009,06,23,01,25,10.20
2009,06,23,01,26,10.20
2009,06,23,01,27,10.20
2009,06,23,01,28,10.20
2009,06,23,01,29,10.20
2009,06,23,01,30,10.10
2009,06,23,01,31,10.10
2009,06,23,01,32,10.10
2009,06,23,01,33,10.10
2009,06,23,01,34,10.10
2009,06,23,01,35,10.10
2009,06,23,01,36,10.10
2009,06,23,01,37,10.10
2009,06,23,01,38,10.10
2009,06,23,01,39,10.10
2009,06,23,01,40,10.10
2009,06,23,01,41,10.10
2009,06,23,01,42,10.10
2009,06,23,01,43,10.10
2009,06,23,01,44,10.00
2009,06,23,01,45,9.90
2009,06,23,01,46,9.90
2009,06,23,01,47,9.90
2009,06,23,01,48,9.90
2009,06,23,01,49,9.90
2009,06,23,01,50,9.90
2009,06,23,01,51,9.90
2009,06,23,01,52,9.90
2009,06,23,01,53,9.90
2009,06,23,01,54,9.90
2009,06,23,01,55,9.90
2009,06,23,01,56,9.90
2009,06,23,01,57,9.90
2009,06,23,01,58,9.90
2009,06,23,01,59,9.90
2009,06,23,02,00,9.90
2009,06,23,02,01,9.90
2009,06,23,02,02,9.90
2009,06,23,02,03,9.90
2009,06,23,02,04,9.90
2009,06,23,02,05,9.90
2009,06,23,02,06,9.90
2009,06,23,02,07,9.90
2009,06,23,02,08,9.80
2009,06,23,02,09,9.80
2009,06,23,02,10,9.80
2009,06,23,02,11,9.80
2009,06,23,02,12,9.80
2009,06,23,02,13,9.80
2009,06,23,02,14,9.80
2009,06,23,02,15,9.80
2009,06,23,02,16,9.80
2009,06,23,02,17,9.70
2009,06,23,02,18,9.70
2009,06,23,02,19,9.70
2009,06,23,02,20,9.70
2009,06,23,02,21,9.70
2009,06,23,02,22,9.70
2009,06,23,02,23,9.70
2009,06,23,02,24,9.70
2009,06,23,02,25,9.70
2009,06,23,02,26,9.70
2009,06,23,02,27,9.70
2009,06,23,02,28,9.70
2009,06,23,02,29,9.70
2009,06,23,02,30,9.70
2009,06,23,02,31,9.70
2009,06,23,02,32,9.70
2009,06,23,02,33,9.70
2009,06,23,02,34,9.70
2009,06,23,02,35,9.60
2009,06,23,02,36,9.60
2009,06,23,02,37,9.60
2009,06,23,02,38,9.60
2009,06,23,02,39,9.60
2009,06,23,02,40,9.50
2009,06,23,02,41,9.50
2009,06,23,02,42,9.50
2009,06,23,02,43,9.50
2009,06,23,02,44,9.50
2009,06,23,02,45,9.50
2009,06,23,02,46,9.40
2009,06,23,02,47,9.40
2009,06,23,02,48,9.40
2009,06,23,02,49,9.40
2009,06,23,02,50,9.40
2009,06,23,02,51,9.40
2009,06,23,02,52,9.30
2009,06,23,02,53,9.30
2009,06,23,02,54,9.30
2009,06,23,02,55,9.30
2009,06,23,02,56,9.30
2009,06,23,02,57,9.30
2009,06,23,02,58,9.30
2009,06,23,02,59,9.30
2009,06,23,03,00,9.30
2009,06,23,03,01,9.30
2009,06,23,03,02,9.20
2009,06,23,03,03,9.20
2009,06,23,03,04,9.20
2009,06,23,03,05,9.20
2009,06,23,03,06,9.20
2009,06,23,03,07,9.20
2009,06,23,03,08,9.20
2009,06,23,03,09,9.20
2009,06,23,03,10,9.20
2009,06,23,03,11,9.20
2009,06,23,03,12,9.20
2009,06,23,03,13,9.20
2009,06,23,03,14,9.20
2009,06,23,03,15,9.20
2009,06,23,03,16,9.20
2009,06,23,03,17,9.20
2009,06,23,03,18,9.20
2009,06,23,03,19,9.20
2009,06,23,03,20,9.20
2009,06,23,03,21,9.20
2009,06,23,03,22,9.20
2009,06,23,03,23,9.20
2009,06,23,03,24,9.20
2009,06,23,03,25,9.20
2009,06,23,03,26,9.20
2009,06,23,03,27,9.20
2009,06,23,03,28,9.20
2009,06,23,03,29,9.20
2009,06,23,03,30,9.20
2009,06,23,03,31,9.20
2009,06,23,03,32,9.20
2009,06,23,03,33,9.20
2009,06,23,03,34,9.20
2009,06,23,03,35,9.20
2009,06,23,03,36,9.20
2009,06,23,03,37,9.20
2009,06,23,03,38,9.20
2009,06,23,03,39,9.20
2009,06,23,03,40,9.20
2009,06,23,03,41,9.20
2009,06,23,03,42,9.20
2009,06,23,03,43,9.20
2009,06,23,03,44,9.20
2009,06,23,03,45,9.20
2009,06,23,03,46,9.20
2009,06,23,03,47,9.20
2009,06,23,03,48,9.20
2009,06,23,03,49,9.20
2009,06,23,03,50,9.20
2009,06,23,03,51,9.20
2009,06,23,03,52,9.20
2009,06,23,03,53,9.20
2009,06,23,03,54,9.20
2009,06,23,03,55,9.10
2009,06,23,03,56,9.10
2009,06,23,03,57,9.10
2009,06,23,03,58,9.10
2009,06,23,03,59,9.10
2009,06,23,04,00,9.10
2009,06,23,04,01,9.10
2009,06,23,04,02,9.10
2009,06,23,04,03,9.20
2009,06,23,04,06,9.20
2009,06,23,04,07,9.20
2009,06,23,04,08,9.20
2009,06,23,04,09,9.20
2009,06,23,04,10,9.20
2009,06,23,04,11,9.20
2009,06,23,04,12,9.20
2009,06,23,04,13,9.20
2009,06,23,04,14,9.20
2009,06,23,04,15,9.20
2009,06,23,04,16,9.20
2009,06,23,04,17,9.20
2009,06,23,04,18,9.20
2009,06,23,04,19,9.20
2009,06,23,04,20,9.20
2009,06,23,04,21,9.20
2009,06,23,04,22,9.20
2009,06,23,04,23,9.20
2009,06,23,04,24,9.20
2009,06,23,04,25,9.20
2009,06,23,04,26,9.20
2009,06,23,04,27,9.20
2009,06,23,04,28,9.20
2009,06,23,04,29,9.20
2009,06,23,04,30,9.20
2009,06,23,04,31,9.20
2009,06,23,04,32,9.20
2009,06,23,04,33,9.20
2009,06,23,04,34,9.20
2009,06,23,04,35,9.20
2009,06,23,04,36,9.10
2009,06,23,04,37,9.10
2009,06,23,04,38,9.10
2009,06,23,04,39,9.10
2009,06,23,04,40,9.10
2009,06,23,04,41,9.10
2009,06,23,04,42,9.10
2009,06,23,04,43,9.00
2009,06,23,04,44,9.00
2009,06,23,04,45,9.00
2009,06,23,04,46,9.00
2009,06,23,04,47,8.90
2009,06,23,04,48,8.90
2009,06,23,04,49,8.90
2009,06,23,04,50,8.90
2009,06,23,04,51,8.80
2009,06,23,04,52,8.80
2009,06,23,04,53,8.80
2009,06,23,04,54,8.80
2009,06,23,04,55,8.80
2009,06,23,04,56,8.80
2009,06,23,04,57,8.80
2009,06,23,04,58,8.80
2009,06,23,04,59,8.80
2009,06,23,05,00,8.80
2009,06,23,05,01,8.70
2009,06,23,05,02,8.70
2009,06,23,05,03,8.70
2009,06,23,05,04,8.70
2009,06,23,05,05,8.70
2009,06,23,05,06,8.70
2009,06,23,05,07,8.70
2009,06,23,05,08,8.70
2009,06,23,05,09,8.70
2009,06,23,05,10,8.60
2009,06,23,05,11,8.60
2009,06,23,05,12,8.60
2009,06,23,05,13,8.60
2009,06,23,05,14,8.60
2009,06,23,05,15,8.60
2009,06,23,05,16,8.60
2009,06,23,05,17,8.60
2009,06,23,05,18,8.60
2009,06,23,05,19,8.60
2009,06,23,05,20,8.60
2009,06,23,05,21,8.60
2009,06,23,05,22,8.60
2009,06,23,05,23,8.60
2009,06,23,05,24,8.60
2009,06,23,05,25,8.60
2009,06,23,05,26,8.60
2009,06,23,05,27,8.60
2009,06,23,05,28,8.60
2009,06,23,05,29,8.60
2009,06,23,05,30,8.60
2009,06,23,05,31,8.60
2009,06,23,05,32,8.60
2009,06,23,05,33,8.60
2009,06,23,05,34,8.60
2009,06,23,05,35,8.60
2009,06,23,05,36,8.60
2009,06,23,05,37,8.60
2009,06,23,05,38,8.60
2009,06,23,05,39,8.60
2009,06,23,05,40,8.60
2009,06,23,05,41,8.60
2009,06,23,05,42,8.70
2009,06,23,05,43,8.70
2009,06,23,05,44,8.70
2009,06,23,05,45,8.70
2009,06,23,05,46,8.70
2009,06,23,05,47,8.80
2009,06,23,05,48,8.80
2009,06,23,05,49,8.80
2009,06,23,05,50,8.90
2009,06,23,05,51,8.90
2009,06,23,05,52,8.90
2009,06,23,05,53,9.00
2009,06,23,05,54,9.00
2009,06,23,05,55,9.00
2009,06,23,05,56,9.00
2009,06,23,05,57,9.10
2009,06,23,05,58,9.10
2009,06,23,05,59,9.10
2009,06,23,06,00,9.10
2009,06,23,06,01,9.20
2009,06,23,06,02,9.20
2009,06,23,06,03,9.20
2009,06,23,06,04,9.20
2009,06,23,06,05,9.20
2009,06,23,06,06,9.20
2009,06,23,06,07,9.20
2009,06,23,06,08,9.20
2009,06,23,06,09,9.20
2009,06,23,06,10,9.20
2009,06,23,06,11,9.20
2009,06,23,06,12,9.20
2009,06,23,06,13,9.30
2009,06,23,06,14,9.30
2009,06,23,06,15,9.30
2009,06,23,06,16,9.30
2009,06,23,06,17,9.40
2009,06,23,06,18,9.40
2009,06,23,06,19,9.40
2009,06,23,06,20,9.40
2009,06,23,06,21,9.50
2009,06,23,06,22,9.50
2009,06,23,06,23,9.50
2009,06,23,06,24,9.60
2009,06,23,06,25,9.60
2009,06,23,06,26,9.60
2009,06,23,06,27,9.70
2009,06,23,06,28,9.70
2009,06,23,06,29,9.70
2009,06,23,06,30,9.70
2009,06,23,06,31,9.80
2009,06,23,06,32,9.80
2009,06,23,06,33,9.80
2009,06,23,06,34,9.90
2009,06,23,06,35,9.90
2009,06,23,06,36,9.90
2009,06,23,06,37,9.90
2009,06,23,06,38,9.90
2009,06,23,06,39,9.90
2009,06,23,06,40,9.90
2009,06,23,06,41,10.00
2009,06,23,06,42,10.10
2009,06,23,06,43,10.10
2009,06,23,06,44,10.10
2009,06,23,06,45,10.10
2009,06,23,06,46,10.20
2009,06,23,06,47,10.20
2009,06,23,06,48,10.30
2009,06,23,06,49,10.40
2009,06,23,06,50,10.50
2009,06,23,06,51,10.60
2009,06,23,06,52,10.70
2009,06,23,06,53,10.70
2009,06,23,06,54,10.80
2009,06,23,06,55,10.80
2009,06,23,06,56,10.80
2009,06,23,06,57,10.90
2009,06,23,06,58,10.90
2009,06,23,06,59,10.90
2009,06,23,07,00,10.90
2009,06,23,07,01,10.90
2009,06,23,07,02,11.00
2009,06,23,07,03,11.10
2009,06,23,07,04,11.10
2009,06,23,07,05,11.20
2009,06,23,07,06,11.30
2009,06,23,07,07,11.40
2009,06,23,07,08,11.40
2009,06,23,07,09,11.60
2009,06,23,07,10,11.60
2009,06,23,07,11,11.60
2009,06,23,07,12,11.80
2009,06,23,07,13,11.90
2009,06,23,07,14,12.00
2009,06,23,07,15,12.10
2009,06,23,07,16,12.30
2009,06,23,07,17,12.40
2009,06,23,07,18,12.50
2009,06,23,07,19,12.70
2009,06,23,07,20,12.80
2009,06,23,07,21,12.80
2009,06,23,07,22,12.90
2009,06,23,07,23,13.00
2009,06,23,07,24,13.10
2009,06,23,07,25,13.10
2009,06,23,07,26,13.20
2009,06,23,07,27,13.30
2009,06,23,07,28,13.30
2009,06,23,07,29,13.30
2009,06,23,07,30,13.30
2009,06,23,07,31,13.30
2009,06,23,07,32,13.30
2009,06,23,07,33,13.30
2009,06,23,07,34,13.30
2009,06,23,07,35,13.30
2009,06,23,07,36,13.20
2009,06,23,07,37,13.10
2009,06,23,07,38,13.00
2009,06,23,07,39,13.00
2009,06,23,07,40,13.00
2009,06,23,07,41,13.00
2009,06,23,07,42,13.00
2009,06,23,07,43,13.00
2009,06,23,07,44,12.90
2009,06,23,07,45,12.80
2009,06,23,07,46,12.80
2009,06,23,07,47,12.80
2009,06,23,07,48,12.80
2009,06,23,07,49,12.80
2009,06,23,07,50,12.90
2009,06,23,07,51,13.00
2009,06,23,07,52,13.00
2009,06,23,07,53,13.10
2009,06,23,07,54,13.20
2009,06,23,07,55,13.30
2009,06,23,07,56,13.30
2009,06,23,07,57,13.30
2009,06,23,07,58,13.30
2009,06,23,07,59,13.30
2009,06,23,08,00,13.30
2009,06,23,08,01,13.30
2009,06,23,08,02,13.30
2009,06,23,08,03,13.30
2009,06,23,08,04,13.30
2009,06,23,08,05,13.30
2009,06,23,08,06,13.30
2009,06,23,08,07,13.40
2009,06,23,08,08,13.40
2009,06,23,08,09,13.50
2009,06,23,08,10,13.50
2009,06,23,08,11,13.50
2009,06,23,08,12,13.60
2009,06,23,08,13,13.60
2009,06,23,08,14,13.70
2009,06,23,08,15,13.70
2009,06,23,08,16,13.70
2009,06,23,08,17,13.70
2009,06,23,08,18,13.70
2009,06,23,08,19,13.70
2009,06,23,08,20,13.80
2009,06,23,08,21,13.80
2009,06,23,08,22,13.90
2009,06,23,08,23,13.90
2009,06,23,08,24,14.00
2009,06,23,08,25,14.10
2009,06,23,08,26,14.10
2009,06,23,08,27,14.20
2009,06,23,08,28,14.20
2009,06,23,08,29,14.20
2009,06,23,08,30,14.20
2009,06,23,08,31,14.20
2009,06,23,08,32,14.10
2009,06,23,08,33,14.10
2009,06,23,08,34,14.10
2009,06,23,08,35,14.10
2009,06,23,08,36,14.10
2009,06,23,08,37,14.10
2009,06,23,08,38,14.20
2009,06,23,08,39,14.20
2009,06,23,08,40,14.20
2009,06,23,08,41,14.20
2009,06,23,08,42,14.20
2009,06,23,08,43,14.20
2009,06,23,08,44,14.20
2009,06,23,08,45,14.20
2009,06,23,08,46,14.20
2009,06,23,08,47,14.40
2009,06,23,08,48,14.40
2009,06,23,08,49,14.30
2009,06,23,08,50,14.20
2009,06,23,08,51,14.20
2009,06,23,08,52,14.20
2009,06,23,08,53,14.20
2009,06,23,08,54,14.20
2009,06,23,08,55,14.20
2009,06,23,08,56,14.20
2009,06,23,08,57,14.20
2009,06,23,08,58,14.30
2009,06,23,08,59,14.30
2009,06,23,09,00,14.40
2009,06,23,09,01,14.50
2009,06,23,09,02,14.60
2009,06,23,09,03,14.60
2009,06,23,09,04,14.70
2009,06,23,09,05,14.80
2009,06,23,09,06,14.80
2009,06,23,09,07,14.80
2009,06,23,09,08,14.80
2009,06,23,09,09,14.80
2009,06,23,09,10,14.90
2009,06,23,09,11,14.80
2009,06,23,09,12,14.80
2009,06,23,09,13,14.80
2009,06,23,09,14,14.80
2009,06,23,09,15,14.80
2009,06,23,09,16,14.90
2009,06,23,09,17,14.90
2009,06,23,09,18,15.00
2009,06,23,09,19,15.00
2009,06,23,09,20,15.10
2009,06,23,09,21,15.20
2009,06,23,09,22,15.20
2009,06,23,09,23,15.30
2009,06,23,09,24,15.40
2009,06,23,09,25,15.50
2009,06,23,09,26,15.50
2009,06,23,09,27,15.40
2009,06,23,09,28,15.30
2009,06,23,09,29,15.00
2009,06,23,09,30,14.70
2009,06,23,09,31,14.40
2009,06,23,09,32,14.10
2009,06,23,09,33,14.00
2009,06,23,09,34,13.90
2009,06,23,09,35,13.90
2009,06,23,09,36,13.80
2009,06,23,09,37,13.80
2009,06,23,09,38,13.80
2009,06,23,09,39,13.80
2009,06,23,09,40,13.80
2009,06,23,09,41,13.90
2009,06,23,09,42,13.90
2009,06,23,09,43,13.90
2009,06,23,09,44,13.80
2009,06,23,09,45,13.90
2009,06,23,09,46,13.90
2009,06,23,09,47,14.00
2009,06,23,09,48,14.00
2009,06,23,09,49,13.90
2009,06,23,09,50,13.90
2009,06,23,09,51,13.80
2009,06,23,09,52,13.80
2009,06,23,09,53,13.70
2009,06,23,09,54,13.80
2009,06,23,09,55,13.80
2009,06,23,09,56,13.80
2009,06,23,09,57,13.80
2009,06,23,09,58,13.70
2009,06,23,09,59,13.70
2009,06,23,10,00,13.70
2009,06,23,10,01,13.70
2009,06,23,10,02,13.70
2009,06,23,10,03,13.70
2009,06,23,10,04,13.70
2009,06,23,10,05,13.70
2009,06,23,10,06,13.70
2009,06,23,10,07,13.70
2009,06,23,10,08,13.70
2009,06,23,10,09,13.70
2009,06,23,10,10,13.80
2009,06,23,10,11,13.80
2009,06,23,10,12,13.70
2009,06,23,10,13,13.70
2009,06,23,10,14,13.70
2009,06,23,10,15,13.70
2009,06,23,10,16,13.70
2009,06,23,10,17,13.60
2009,06,23,10,18,13.60
2009,06,23,10,19,13.60
2009,06,23,10,20,13.70
2009,06,23,10,21,13.70
2009,06,23,10,22,13.80
2009,06,23,10,23,13.90
2009,06,23,10,24,13.90
2009,06,23,10,25,13.90
2009,06,23,10,26,13.90
2009,06,23,10,27,13.90
2009,06,23,10,28,13.80
2009,06,23,10,29,13.70
2009,06,23,10,30,13.70
2009,06,23,10,31,13.70
2009,06,23,10,32,13.70
2009,06,23,10,33,13.70
2009,06,23,10,34,13.70
2009,06,23,10,35,13.80
2009,06,23,10,36,13.90
2009,06,23,10,37,13.90
2009,06,23,10,38,13.90
2009,06,23,10,39,13.90
2009,06,23,10,40,13.90
2009,06,23,10,41,13.90
2009,06,23,10,42,13.90
2009,06,23,10,43,13.90
2009,06,23,10,44,13.90
2009,06,23,10,45,13.90
2009,06,23,10,46,13.90
2009,06,23,10,47,13.90
2009,06,23,10,48,14.00
2009,06,23,10,49,14.10
2009,06,23,10,50,14.20
2009,06,23,10,51,14.30
2009,06,23,10,52,14.40
2009,06,23,10,53,14.40
2009,06,23,10,54,14.50
2009,06,23,10,55,14.50
2009,06,23,10,56,14.40
2009,06,23,10,57,14.50
2009,06,23,10,58,14.60
2009,06,23,10,59,14.70
2009,06,23,11,00,14.70
2009,06,23,11,01,14.80
2009,06,23,11,02,14.80
2009,06,23,11,03,14.90
2009,06,23,11,04,15.00
2009,06,23,11,05,15.20
2009,06,23,11,06,15.20
2009,06,23,11,07,15.20
2009,06,23,11,08,15.20
2009,06,23,11,09,15.10
2009,06,23,11,10,15.00
2009,06,23,11,11,15.00
2009,06,23,11,12,14.90
2009,06,23,11,13,14.80
2009,06,23,11,14,14.80
2009,06,23,11,15,14.80
2009,06,23,11,16,14.80
2009,06,23,11,17,14.80
2009,06,23,11,18,14.80
2009,06,23,11,19,14.90
2009,06,23,11,20,15.00
2009,06,23,11,21,15.10
2009,06,23,11,22,15.30
2009,06,23,11,23,15.30
2009,06,23,11,24,15.30
2009,06,23,11,25,15.30
2009,06,23,11,26,15.30
2009,06,23,11,27,15.30
2009,06,23,11,28,15.30
2009,06,23,11,29,15.30
2009,06,23,11,30,15.30
2009,06,23,11,31,15.30
2009,06,23,11,32,15.30
2009,06,23,11,33,15.30
2009,06,23,11,34,15.40
2009,06,23,11,35,15.40
2009,06,23,11,36,15.40
2009,06,23,11,37,15.50
2009,06,23,11,38,15.40
2009,06,23,11,39,15.40
2009,06,23,11,40,15.40
2009,06,23,11,41,15.30
2009,06,23,11,42,15.30
2009,06,23,11,43,15.30
2009,06,23,11,44,15.40
2009,06,23,11,45,15.40
2009,06,23,11,46,15.40
2009,06,23,11,47,15.40
2009,06,23,11,48,15.30
2009,06,23,11,49,15.30
2009,06,23,11,50,15.20
2009,06,23,11,51,15.20
2009,06,23,11,52,15.20
2009,06,23,11,53,15.20
2009,06,23,11,54,15.30
2009,06,23,11,55,15.30
2009,06,23,11,56,15.40
2009,06,23,11,57,15.50
2009,06,23,11,58,15.60
2009,06,23,11,59,15.70
2009,06,23,12,00,15.80
2009,06,23,12,01,15.80
2009,06,23,12,02,15.80
2009,06,23,12,03,15.80
2009,06,23,12,04,15.70
2009,06,23,12,05,15.60
2009,06,23,12,06,15.70
2009,06,23,12,07,15.70
2009,06,23,12,08,15.70
2009,06,23,12,09,15.70
2009,06,23,12,10,15.60
2009,06,23,12,11,15.60
2009,06,23,12,12,15.60
2009,06,23,12,13,15.60
2009,06,23,12,14,15.60
2009,06,23,12,15,15.60
2009,06,23,12,16,15.60
2009,06,23,12,17,15.70
2009,06,23,12,18,15.70
2009,06,23,12,19,15.60
2009,06,23,12,20,15.70
2009,06,23,12,21,15.60
2009,06,23,12,22,15.50
2009,06,23,12,23,15.50
2009,06,23,12,24,15.50
2009,06,23,12,25,15.40
2009,06,23,12,26,15.40
2009,06,23,12,27,15.40
2009,06,23,12,28,15.30
2009,06,23,12,29,15.40
2009,06,23,12,30,15.40
2009,06,23,12,31,15.40
2009,06,23,12,32,15.40
2009,06,23,12,33,15.40
2009,06,23,12,34,15.50
2009,06,23,12,35,15.50
2009,06,23,12,36,15.50
2009,06,23,12,37,15.50
2009,06,23,12,38,15.40
2009,06,23,12,39,15.40
2009,06,23,12,40,15.40
2009,06,23,12,41,15.30
2009,06,23,12,42,15.30
2009,06,23,12,43,15.30
2009,06,23,12,44,15.30
2009,06,23,12,45,15.30
2009,06,23,12,46,15.40
2009,06,23,12,47,15.50
2009,06,23,12,48,15.60
2009,06,23,12,49,15.80
2009,06,23,12,50,15.80
2009,06,23,12,51,15.80
2009,06,23,12,52,15.80
2009,06,23,12,53,15.70
2009,06,23,12,54,15.70
2009,06,23,12,55,15.60
2009,06,23,12,56,15.70
2009,06,23,12,57,15.70
2009,06,23,12,58,15.80
2009,06,23,12,59,15.90
2009,06,23,13,00,15.90
2009,06,23,13,01,16.10
2009,06,23,13,02,16.00
2009,06,23,13,03,15.90
2009,06,23,13,04,16.00
2009,06,23,13,05,16.10
2009,06,23,13,06,16.10
2009,06,23,13,07,16.10
2009,06,23,13,08,16.10
2009,06,23,13,09,16.10
2009,06,23,13,10,16.10
2009,06,23,13,11,16.20
2009,06,23,13,12,16.30
2009,06,23,13,13,16.40
2009,06,23,13,14,16.50
2009,06,23,13,15,16.60
2009,06,23,13,16,16.60
2009,06,23,13,17,16.60
2009,06,23,13,18,16.60
2009,06,23,13,19,16.40
2009,06,23,13,20,16.40
2009,06,23,13,21,16.40
2009,06,23,13,22,16.60
2009,06,23,13,23,16.70
2009,06,23,13,24,16.80
2009,06,23,13,25,16.90
2009,06,23,13,26,17.10
2009,06,23,13,27,17.10
2009,06,23,13,28,17.10
2009,06,23,13,29,17.10
2009,06,23,13,30,17.10
2009,06,23,13,31,17.20
2009,06,23,13,32,17.30
2009,06,23,13,33,17.20
2009,06,23,13,34,17.10
2009,06,23,13,35,17.20
2009,06,23,13,36,17.30
2009,06,23,13,37,17.30
2009,06,23,13,38,17.30
2009,06,23,13,39,17.30
2009,06,23,13,40,17.40
2009,06,23,13,41,17.50
2009,06,23,13,42,17.50
2009,06,23,13,43,17.50
2009,06,23,13,44,17.50
2009,06,23,13,45,17.40
2009,06,23,13,46,17.20
2009,06,23,13,47,17.20
2009,06,23,13,48,17.20
2009,06,23,13,49,17.30
2009,06,23,13,50,17.30
2009,06,23,13,51,17.40
2009,06,23,13,52,17.30
2009,06,23,13,53,17.20
2009,06,23,13,54,17.00
2009,06,23,13,55,17.00
2009,06,23,13,56,16.90
2009,06,23,13,57,16.90
2009,06,23,13,58,16.80
2009,06,23,13,59,16.70
2009,06,23,14,00,16.70
2009,06,23,14,01,16.70
2009,06,23,14,02,16.70
2009,06,23,14,03,16.70
2009,06,23,14,04,16.70
2009,06,23,14,05,16.70
2009,06,23,14,06,16.70
2009,06,23,14,07,16.80
2009,06,23,14,08,16.90
2009,06,23,14,09,16.90
2009,06,23,14,10,16.90
2009,06,23,14,11,17.00
2009,06,23,14,12,17.00
2009,06,23,14,13,17.10
2009,06,23,14,14,17.10
2009,06,23,14,15,17.20
2009,06,23,14,16,17.30
2009,06,23,14,17,17.30
2009,06,23,14,18,17.30
2009,06,23,14,19,17.10
2009,06,23,14,20,17.10
2009,06,23,14,21,17.10
2009,06,23,14,22,17.20
2009,06,23,14,23,17.30
2009,06,23,14,24,17.30
2009,06,23,14,25,17.30
2009,06,23,14,26,17.40
2009,06,23,14,27,17.50
2009,06,23,14,28,17.50
2009,06,23,14,29,17.40
2009,06,23,14,30,17.30
2009,06,23,14,31,17.20
2009,06,23,14,32,17.20
2009,06,23,14,33,17.20
2009,06,23,14,34,17.20
2009,06,23,14,35,17.30
2009,06,23,14,36,17.40
2009,06,23,14,37,17.60
2009,06,23,14,38,17.60
2009,06,23,14,39,17.50
2009,06,23,14,40,17.50
2009,06,23,14,41,17.50
2009,06,23,14,42,17.70
2009,06,23,14,43,17.80
2009,06,23,14,44,17.90
2009,06,23,14,45,17.80
2009,06,23,14,46,17.80
2009,06,23,14,47,17.70
2009,06,23,14,48,17.70
2009,06,23,14,49,17.50
2009,06,23,14,50,17.40
2009,06,23,14,51,17.30
2009,06,23,14,52,17.40
2009,06,23,14,53,17.50
2009,06,23,14,54,17.50
2009,06,23,14,55,17.40
2009,06,23,14,56,17.40
2009,06,23,14,57,17.30
2009,06,23,14,58,17.20
2009,06,23,14,59,17.20
2009,06,23,15,00,17.30
2009,06,23,15,01,17.30
2009,06,23,15,02,17.30
2009,06,23,15,03,17.40
2009,06,23,15,04,17.40
2009,06,23,15,05,17.30
2009,06,23,15,06,17.30
2009,06,23,15,07,17.30
2009,06,23,15,08,17.30
2009,06,23,15,09,17.40
2009,06,23,15,10,17.50
2009,06,23,15,11,17.50
2009,06,23,15,12,17.50
2009,06,23,15,13,17.50
2009,06,23,15,14,17.50
2009,06,23,15,15,17.50
2009,06,23,15,16,17.50
2009,06,23,15,17,17.60
2009,06,23,15,18,17.70
2009,06,23,15,19,17.70
2009,06,23,15,20,17.70
2009,06,23,15,21,17.70
2009,06,23,15,22,17.50
2009,06,23,15,23,17.40
2009,06,23,15,24,17.40
2009,06,23,15,25,17.40
2009,06,23,15,26,17.40
2009,06,23,15,27,17.50
2009,06,23,15,28,17.50
2009,06,23,15,29,17.60
2009,06,23,15,30,17.70
2009,06,23,15,31,17.70
2009,06,23,15,32,17.70
2009,06,23,15,33,17.60
2009,06,23,15,34,17.60
2009,06,23,15,35,17.60
2009,06,23,15,36,17.70
2009,06,23,15,37,17.70
2009,06,23,15,38,17.80
2009,06,23,15,39,17.90
2009,06,23,15,40,17.90
2009,06,23,15,41,17.90
2009,06,23,15,42,17.90
2009,06,23,15,43,17.90
2009,06,23,15,44,17.80
2009,06,23,15,45,17.80
2009,06,23,15,46,17.90
2009,06,23,15,47,17.90
2009,06,23,15,48,18.10
2009,06,23,15,49,18.10
2009,06,23,15,50,18.20
2009,06,23,15,51,18.20
2009,06,23,15,52,18.20
2009,06,23,15,53,18.20
2009,06,23,15,54,18.10
2009,06,23,15,55,17.90
2009,06,23,15,56,17.90
2009,06,23,15,57,17.80
2009,06,23,15,58,17.70
2009,06,23,15,59,17.70
2009,06,23,16,00,17.70
2009,06,23,16,01,17.70
2009,06,23,16,02,17.70
2009,06,23,16,03,17.70
2009,06,23,16,04,17.60
2009,06,23,16,05,17.60
2009,06,23,16,06,17.60
2009,06,23,16,07,17.60
2009,06,23,16,08,17.60
2009,06,23,16,09,17.60
2009,06,23,16,10,17.60
2009,06,23,16,11,17.50
2009,06,23,16,12,17.50
2009,06,23,16,13,17.60
2009,06,23,16,14,17.70
2009,06,23,16,15,17.80
2009,06,23,16,16,17.90
2009,06,23,16,17,17.90
2009,06,23,16,18,17.90
2009,06,23,16,19,18.00
2009,06,23,16,20,18.10
2009,06,23,16,21,18.20
2009,06,23,16,22,18.20
2009,06,23,16,23,18.20
2009,06,23,16,24,18.20
2009,06,23,16,25,18.20
2009,06,23,16,26,18.20
2009,06,23,16,27,18.20
2009,06,23,16,28,18.20
2009,06,23,16,29,18.20
2009,06,23,16,30,18.20
2009,06,23,16,31,18.20
2009,06,23,16,32,18.20
2009,06,23,16,33,18.20
2009,06,23,16,34,18.20
2009,06,23,16,35,18.10
2009,06,23,16,36,18.10
2009,06,23,16,37,18.00
2009,06,23,16,38,17.90
2009,06,23,16,39,17.90
2009,06,23,16,40,17.90
2009,06,23,16,41,17.90
2009,06,23,16,42,17.80
2009,06,23,16,43,17.80
2009,06,23,16,44,17.70
2009,06,23,16,45,17.70
2009,06,23,16,46,17.80
2009,06,23,16,47,17.80
2009,06,23,16,48,17.80
2009,06,23,16,49,17.90
2009,06,23,16,50,17.80
2009,06,23,16,51,17.80
2009,06,23,16,52,17.80
2009,06,23,16,53,17.90
2009,06,23,16,54,17.90
2009,06,23,16,55,17.90
2009,06,23,16,56,18.00
2009,06,23,16,57,18.10
2009,06,23,16,58,18.10
2009,06,23,16,59,18.20
2009,06,23,17,00,18.20
2009,06,23,17,01,18.30
2009,06,23,17,02,18.40
2009,06,23,17,03,18.60
2009,06,23,17,04,18.70
2009,06,23,17,05,18.80
2009,06,23,17,06,18.80
2009,06,23,17,07,18.80
2009,06,23,17,08,18.70
2009,06,23,17,09,18.70
2009,06,23,17,10,18.70
2009,06,23,17,11,18.80
2009,06,23,17,12,18.90
2009,06,23,17,13,18.90
2009,06,23,17,14,19.00
2009,06,23,17,15,19.10
2009,06,23,17,16,19.10
2009,06,23,17,17,19.10
2009,06,23,17,18,19.10
2009,06,23,17,19,19.10
2009,06,23,17,20,19.10
2009,06,23,17,21,19.10
2009,06,23,17,22,19.10
2009,06,23,17,23,19.20
2009,06,23,17,24,19.30
2009,06,23,17,25,19.30
2009,06,23,17,26,19.40
2009,06,23,17,27,19.40
2009,06,23,17,28,19.50
2009,06,23,17,29,19.50
2009,06,23,17,30,19.60
2009,06,23,17,31,19.60
2009,06,23,17,32,19.60
2009,06,23,17,33,19.60
2009,06,23,17,34,19.70